Location: Aranbee
(34.0885°N, 118.2342°W)
Time: 13:22:48
(UTC+00:00)

Tiros 1 - Pass Details

Date: 27 November 2020
Orbit: 630 x 663 km, 48.4° (Epoch: 21 January)

Event Time Altitude Azimuth Distance (km) Brightness Sun altitude
Rises 03:07:33 0° 306° (NW) 2,983 11.2 -29.2°
Reaches altitude 10° 03:10:59 10° 331° (NNW) 2,065 10.0 -30.0°
Enters shadow 03:11:35 12° 338° (NNW) 1,954 9.7 -30.1°
Maximum altitude 03:13:33 14° 4° (N) 1,786 - -30.5°
Drops below altitude 10° 03:16:07 10° 37° (NE) 2,053 - -31.0°
Sets 03:19:31 0° 63° (ENE) 2,955 - -31.7°
